Regional Weather Roundup
Issued by NWS

Home | Current Version | Previous Version | Text Only | Print | Product List | Glossary On
Versions: 1 2 3 4 5 6 7 8 9 10 11 12 13 14 15 16 17 18 19 20 21 22 23 24 25 26 27 28 29 30 31 32 33 34 35 36 37 38 39 40 41 42 43 44 45 46 47 48 49 50
000
ASUS45 KBOI 051910
RWRID
WEATHER ROUNDUP FOR IDAHO
NATIONAL WEATHER SERVICE BOISE ID
1200 PM MST THU MAR 05 2015

NOTE: "FAIR" INDICATES FEW OR NO CLOUDS BELOW 12000 FEET
WITH NO SIGNIFICANT WEATHER AND/OR OBSTRUCTIONS TO VISIBILITY

IDZ012-014-052000-
SOUTHWEST IDAHO


CITY           SKY/WX    TMP DP  RH WIND       PRES   REMARKS
BOISE          SUNNY     48  16  27 CALM      30.40F
CALDWELL       SUNNY     45  18  33 S5        30.43F
MOUNTAIN HOME  SUNNY     45  14  29 E6        30.40F
$$

IDZ016-017-052000-
SOUTHCENTRAL IDAHO


CITY           SKY/WX    TMP DP  RH WIND       PRES   REMARKS
BURLEY         MOSUNNY   44  13  28 SW6       30.38F
JEROME         MOSUNNY   43  12  28 CALM      30.40F
TWIN FALLS     MOSUNNY   49  14  24 NW9       30.38F
$$

IDZ019>023-052000-
SOUTHEAST IDAHO


CITY           SKY/WX    TMP DP  RH WIND       PRES   REMARKS
IDAHO FALLS    SUNNY     39  17  41 S10       30.40F WCI  32
POCATELLO      SUNNY     43  16  33 SW12      30.40F
REXBURG        SUNNY     34  16  47 SW9       30.39F WCI  27
$$

IDZ006-010-011-018-031-032-052000-
CENTRAL IDAHO MOUNTAINS


CITY           SKY/WX    TMP DP  RH WIND       PRES   REMARKS
MCCALL         SUNNY     36  15  42 S3        30.34F
HAILEY         PTSUNNY   36  16  44 E9        30.38S WCI  29
STANLEY          N/A     28   7  41 CALM      30.36F
SALMON         SUNNY     36  10  35 CALM      30.35F
CHALLIS        SUNNY     37   9  31 N5        30.33F WCI  33
$$

IDZ002-004-006-007-026-052000-
NORTHERN IDAHO


CITY           SKY/WX    TMP DP  RH WIND       PRES   REMARKS
LEWISTON       MOSUNNY   45  23  42 VRB5      30.36S
LOWELL           N/A     44  16  32 CALM      30.41F
COEUR D`ALENE  MOSUNNY   43  19  39 SE3       30.32F
MULLAN PASS    SUNNY     33   8  35 VRB3      30.23R
$$


USA.gov is the U.S. government's official web portal to all federal, state and local government web resources and services.